#timestamp,LO_Frequency,Hit,StdDev 
1660921215.5,286046999.6,N
1660921235.3,286046996.9,N
1660921255.2,286046997.0,N
1660921275.9,286046997.0,N
1660921295.7,286046997.0,N
1660921315.6,286046997.0,N
1660921335.4,286046998.2,N
1660921355.2,286047001.0,N
1660921375.1,286047000.5,N
1660921376.0,286047000.5,N
1660921395.8,286047000.9,N
1660921415.7,286047000.8,N
1660921435.5,286047000.6,N
1660921455.4,286047001.0,N
1660921475.2,286046998.6,N
1660921495.0,286046996.6,N
1660921495.9,286046996.6,N
1660921515.8,286046996.8,N
1660921535.6,286046997.9,N
1660921555.4,286046997.9,N
1660921575.3,286046997.0,N
1660921595.1,286046997.2,N
1660921615.9,286046997.0,N
1660921635.7,286046998.9,N
1660921655.5,286046998.4,N
1660921675.4,286046998.5,N
1660921695.2,286047000.6,N
1660921715.0,286047000.1,N
1660921715.9,286047000.1,N
1660921735.8,286046998.9,N
1660921755.6,286046998.9,N
1660921775.5,286046996.8,N
1660921795.3,286046996.5,N
1660921815.1,286046996.6,N
1660921835.9,286046997.8,N
1660921855.7,286046999.6,N
1660921875.6,286046999.3,N
1660921895.4,286046998.7,N
1660921915.2,286047000.4,N
1660921935.1,286047001.1,N
1660921936.0,286047001.1,N
1660921955.8,286047000.4,N
1660921975.7,286047002.8,N
1660921995.5,286047000.2,N
1660922015.4,286046999.7,N
1660922035.2,286047000.1,N
1660922055.1,286047002.8,N
1660922056.0,286047002.8,N
1660922075.8,286047002.1,N
1660922095.6,286047000.3,N
1660922115.5,286047000.5,N
1660922135.3,286047000.4,N
1660922155.2,286047000.4,N
1660922175.9,286047000.8,N
1660922195.7,286047000.7,N
1660922215.6,286047000.9,N
1660922235.4,286046998.9,N
1660922255.2,286046998.5,N
1660922275.1,286046998.2,N
1660922276.0,286046998.2,N
1660922295.8,286047001.2,N
1660922315.7,286047000.2,N
1660922335.5,286047002.8,N
1660922355.3,286047001.3,N
1660922375.2,286047002.1,N
1660922395.0,286047001.9,N
1660922395.9,286047001.9,N
1660922415.8,286047002.7,N
1660922435.6,286046999.7,N
1660922455.4,286047002.2,N
1660922475.3,286047001.5,N
1660922495.1,286047002.6,N
1660922496.0,286047002.6,N
1660922515.8,286047002.4,N
1660922535.7,286047000.4,N
1660922555.5,286047000.4,N
1660922575.4,286047000.9,N
1660922595.2,286046998.4,N
1660922615.0,286047001.0,N
1660922615.9,286047001.0,N
1660922635.8,286047000.3,N
1660922655.6,286047001.0,N
1660922675.4,286046999.8,N
1660922695.3,286047001.0,N
1660922715.1,286047000.0,N
1660922735.9,286047000.7,N
1660922755.7,286046998.3,N
1660922775.5,286047000.3,N
1660922795.4,286046999.9,N
1660922815.2,286047001.1,N
1660922835.0,286046998.1,N
1660922835.9,286046998.1,N
1660922855.8,286046996.8,N
1660922875.6,286046996.5,N
1660922895.5,286046997.2,N
1660922915.3,286046996.8,N
1660922935.1,286046999.3,N
1660922955.9,286046998.5,N
1660922975.7,286046996.6,N
1660922995.5,286046996.6,N
1660923015.4,286046999.5,N
1660923035.2,286047000.8,N
1660923055.1,286046998.2,N
1660923056.0,286046998.2,N
1660923075.8,286047000.4,N
1660923095.6,286047002.7,N
1660923115.5,286047002.4,N
1660923135.3,286047002.7,N
1660923155.1,286047000.8,N
1660923175.9,286047000.7,N
1660923195.7,286046998.5,N
1660923215.6,286046998.4,N
1660923235.4,286046998.4,N
1660923255.2,286046998.1,N
1660923275.1,286047000.7,N
1660923276.0,286047000.7,N
1660923295.8,286047000.7,N
1660923315.6,286046998.2,N
1660923335.5,286046998.2,N
1660923355.3,286046999.3,N
1660923375.2,286046998.7,N
1660923395.9,286047001.1,N
1660923415.7,286046998.2,N
1660923435.6,286046998.7,N
1660923455.4,286046998.2,N
1660923475.2,286046998.9,N
1660923495.1,286047000.5,N
1660923496.0,286047000.5,N
1660923515.8,286047000.0,N
1660923535.7,286047000.9,N
1660923555.5,286047001.0,N
1660923575.3,286047000.0,N
1660923595.2,286047000.9,N
1660923615.0,286047000.4,N
1660923615.9,286047000.4,N
1660923635.7,286046999.9,N
1660923655.6,286047002.8,N
1660923675.4,286047000.5,N
1660923695.3,286046998.5,N
1660923715.1,286047000.3,N
1660923735.8,286047000.5,N
1660923755.7,286046999.7,N
1660923775.5,286046999.8,N
1660923795.4,286047000.3,N
1660923815.2,286047000.7,N
1660923835.0,286047000.4,N
1660923835.9,286047000.4,N
1660923855.8,286047001.1,N
1660923875.6,286046999.3,N
1660923895.5,286046999.1,N
1660923915.3,286046998.5,N
1660923935.1,286046998.8,N
1660923955.9,286046997.0,N
1660923975.7,286046996.9,N
1660923995.5,286046999.5,N
1660924015.4,286046998.9,N
1660924035.2,286046998.8,N
1660924055.1,286046998.9,N
1660924056.0,286046998.9,N
1660924075.8,286046998.9,N
1660924095.6,286047001.0,N
1660924115.5,286046999.2,N
1660924135.3,286046999.3,N
1660924155.2,286046996.8,N
1660924175.9,286046999.0,N
1660924195.7,286047000.7,N
1660924215.6,286046998.1,N
1660924235.4,286046998.8,N
1660924255.2,286046998.2,N
1660924275.1,286046999.4,N
1660924276.0,286046999.4,N
1660924295.8,286046999.2,N
1660924315.7,286046998.3,N
1660924335.5,286046998.4,N
1660924355.3,286046999.3,N
1660924375.2,286046999.0,N
1660924395.0,286046999.4,N
1660924395.9,286046999.4,N
1660924415.8,286046999.4,N
1660924435.6,286046998.3,N
1660924455.4,286047000.3,N
1660924475.3,286047000.6,N
1660924495.1,286047000.4,N
1660924515.8,286046999.9,N
1660924535.7,286047001.2,N
1660924555.5,286046998.2,N
1660924575.4,286047000.3,N
1660924595.2,286047000.0,N
1660924615.0,286047000.3,N
1660924615.9,286047000.3,N
1660924635.8,286047002.8,N
1660924655.6,286047000.4,N
1660924675.4,286047002.7,N
1660924695.3,286047000.1,N
1660924715.1,286047000.0,N
1660924735.9,286046999.8,N
1660924755.7,286047001.0,N
1660924775.5,286046998.2,N
1660924795.4,286047001.0,N
